DELTA 1 DEB, 19429

Orbit data source: Space-Track

DELTA 1 DEB, 19429 is space debris in LEO originally from a launch on Thu, 14 Jul 1977 UTC launched from the Air Force Eastern Test Range (AFETR). Debris objects in space refer to the collection of defunct objects orbiting the Earth. Examples of debris include non-operational satellites, rocket bodies, and fragments generated from explosions, collisions, or faulty payload assembly.

Loading next visibility...
Identifier
19429, 1977-065GB
Orbit
LEO
Country
Flag of USUS
Related business
Manufacturer
Unknown
Mission
Spacecraft
Bus & Motor
Unknown
Mass
Unknown
Launch date (UTC)
1977-07-14 (49 years ago)
Launch vehicle
Unknown
Launch site
Air Force Eastern Test Range (AFETR)
Object type
Payload
Rocket body
Debris
Shape & HBR
Unknown shape, 0.1 m
Radar Cross Section
Medium (>0.1 m² and <1 m²)

Expand to show TLE details & history
Last TLE update: 9 hours ago

TLE from 9 hours ago
0 DELTA 1 DEB
1 19429U 77065GB  26263.07809705  .00005558  00000-0  58769-3 0  9996
2 19429  29.1023 263.9715 0357752  29.7783 332.2667 14.50275705900477
Epoch: 2026-09-20T01:52Z
TLE epoch observation values (Epoch: 2026-09-20T01:52:27.585Z)
Latitude
-0.00002°
Longitude
-123.12092°
Altitude
500.326 km
Speed
7.735 km/s
True Right ascension
17h 35m 53s
True Declination
0° 00' 00"
Sunlit
Object was in daylight at epoch
Visualization orbit readout
Latitude
Unknown
Longitude
Unknown
Altitude
Unknown
Speed
Unknown
Apparent Right ascension
Unknown
Apparent Declination
Unknown
Sunlit
N/A
Visualization observer readout
Local Sidereal Time
03:41:41
Azimuth
Unknown
Elevation
Unknown
Doppler factor
Unknown
Orbital elements
Apogee altitude
983.013 km
Perigee altitude
474.512 km
Semi-major axis
7,106.899 km
Eccentricity
0.03578
Inclination
29.1023°
RAAN
263.9715°
Arg. of periapsis
29.7783°
True anomaly
330.28087°
Mean anomaly
332.2667°
Eccentric anomaly
331.28178°
Mean motion
3.62262 °/min
Orbital period
99.38 mins
BSTAR
0.00058769
Loading maneuver chart data...
Computing Atmospheric mass density...
Loading historical data...
Loading historical data...
Loading historical data...
Loading historical data...
Loading historical data...
Loading historical data...
Loading historical data...

Documentation

Showing up to 5 results
|